Regional Weather Roundup
Issued by NWS

Home | Current Version | Previous Version | Text Only | Print | Product List | Glossary On
Versions: 1 2 3 4 5 6 7 8 9 10 11 12 13 14 15 16 17 18 19 20 21 22 23 24 25 26 27 28 29 30 31 32 33 34 35 36 37 38 39 40 41 42 43 44 45 46 47 48 49 50
373
ASUS44 KJAN 181310
RWRMS

MISSISSIPPI HOURLY WEATHER ROUNDUP
NATIONAL WEATHER SERVICE JACKSON MS
700 AM CST WED JAN 18 2017

NOTE: "FAIR: INDICATES FEW OR NO CLOUDS BELOW 12,000 FEET WITH NO
SIGNIFICANT WEATHER AND/OR OBSTRUCTIONS TO VISIBILITY.

MSZ001>002-007>008-010>013-018>021-025>028-034>036-181400-
NORTHWEST MISSISSIPPI

CITY           SKY/WX    TMP DP  RH WIND       PRES   REMARKS
BATESVILLE     CLOUDY    49  46  87 NE3       30.20S
CLARKSDALE     CLOUDY    50  48  93 N8        30.20R
CLEVELAND      CLOUDY    50  50 100 N5        30.19R
GREENWOOD      CLOUDY    53  48  83 SE3       30.17R
GREENVILLE     CLOUDY    51  46  83 NE6       30.18R
OLIVE BRANCH   MOCLDY   N/A N/A N/A CALM      30.21
OXFORD         CLOUDY    48  45  87 N3        30.21R
TUNICA         CLOUDY    46  43  87 NE7       30.22R
WINONA         CLOUDY    52  52  99 CALM      30.17S
$$

MSZ003>006-009-014>017-022>024-029>033-037>039-181400-
NORTHEAST MISSISSIPPI

CITY           SKY/WX    TMP DP  RH WIND       PRES   REMARKS
COLUMBUS AFB   CLOUDY    72  52  49 CALM      30.17R
CORINTH        CLOUDY    46  43  87 NE8       30.19R
GOLDN TRIANGLE CLOUDY    55  50  82 N7        30.12S
STARKVILLE     CLOUDY    54  52  94 CALM      30.18F
TUPELO         CLOUDY    51  47  86 N5        30.19R
$$

MSZ040-058-181400-
CENTRAL MISSISSIPPI

CITY           SKY/WX    TMP DP  RH WIND       PRES   REMARKS
JACKSON INTL   CLOUDY    59  57  93 NE3       30.15R
JACKSON HAWKNS CLOUDY    59  57  93 E3        30.16R
MADISON        CLOUDY    55  55 100 CALM      30.16R
MERIDIAN KEY   CLOUDY    66  66 100 W3        30.16R
MERIDIAN NAS   CLOUDY    64  61  90 CALM      30.17R FOG
RAYMOND        DRIZZLE   59  57  94 CALM      30.15S
VICKSBURG VKS  CLOUDY    57  57 100 CALM      30.14S
$$

MSZ059>079-181400-
SOUTH MISSISSIPPI

CITY           SKY/WX    TMP DP  RH WIND       PRES   REMARKS
BROOKHAVEN     CLOUDY    66  66 100 CALM      30.16R FOG
HATTIESBURG    CLOUDY    66  65  96 CALM      30.17R
LAUREL         CLOUDY    64  64 100 CALM      30.17R
MCCOMB         MOCLDY    66  64  93 E3        30.14S FOG
NATCHEZ        CLOUDY    59  55  88 N5        30.13S VSB 1/2
PINE BELT      CLOUDY    64  63  94 CALM      30.18S
$$

MSZ080>082-181400-
COASTAL MISSISSIPPI

CITY           SKY/WX    TMP DP  RH WIND       PRES   REMARKS
BAY ST LOUIS   FOG       64  63  94 CALM      30.15  VSB 1
BILOXI         FOG       66  66 100 CALM      30.15S VSB<1/4
PASCAGOULA     FOG       66  65  96 CALM      30.16R VSB 1/4
GULFPORT       FOG       67  67 100 CALM      30.15R VSB 1/4
$$

LAZ007>009-015>016-023>026-181400-
NORTHEAST LOUISIANA

CITY           SKY/WX    TMP DP  RH WIND       PRES   REMARKS
BASTROP        CLOUDY    53  52  97 NE5       30.16S
TALLULAH/VBURG CLOUDY    56  54  93 NE5       30.16S
VIDALIA        CLOUDY    58  58  99 N5        30.16S FOG
$$




USA.gov is the U.S. government's official web portal to all federal, state and local government web resources and services.